Retour au catalogue

STARLINK-31228

ActifCommunicationsVLEO
NORAD 58842·PAYLOAD·🇺🇸 United States

Lancé Jan 24, 2024 depuis Vandenberg Space Force Base

Loading…

Prochains Passages (prochaines 24 heures)

TLE

FraisSource: CelesTrak SupGP

Époque: Sep 14, 2026, 22:27 UTC

1 58842C 24017S   26257.93590278  .00024500  00000+0  72396-3 0  2573
2 58842  53.1600  43.7932 0001185  75.0013 220.1857 15.34374461    17

Suivez STARLINK-31228 en temps réel avec AllMySat

Download on the App Store